This is the latest recevied weather packets stored in our database for station/object W0AKO. If no packets are shown the sender has not sent any weather packets the latest 10 day(s).
| Time | Temp. | Humidity | Pressure | Rain* | Wind** | Luminosity | Snow |
|---|---|---|---|---|---|---|---|
| 1777931746 | 26.11° C | 10% | 1009.5 hPa | 0 mm | - | 290 W/m² | - |
| 1777931444 | 26.67° C | 10% | 1009.6 hPa | 0 mm | - | 454 W/m² | - |
| 1777931139 | 26.67° C | 10% | 1009.6 hPa | 0 mm | - | 573 W/m² | - |
| 1777930836 | 25.56° C | 10% | 1009.7 hPa | 0 mm | - | 510 W/m² | - |
| 1777930532 | 25° C | 10% | 1009.5 hPa | 0 mm | - | 528 W/m² | - |
| 1777930230 | 25.56° C | 10% | 1009.7 hPa | 0 mm | - | 615 W/m² | - |
| 1777929925 | 25.56° C | 10% | 1009.7 hPa | 0 mm | - | 731 W/m² | - |
| 1777929623 | 26.11° C | 10% | 1009.6 hPa | 0 mm | - | 400 W/m² | - |
| 1777929320 | 26.11° C | 10% | 1009.6 hPa | 0 mm | - | 444 W/m² | - |
| 1777929017 | 26.11° C | 10% | 1009.9 hPa | 0 mm | - | 492 W/m² | - |
| 1777928714 | 26.67° C | 10% | 1009.8 hPa | 0 mm | - | 599 W/m² | - |
| 1777928411 | 25.56° C | 10% | 1009.9 hPa | 0 mm | - | 556 W/m² | - |
| 1777928109 | 25.56° C | 10% | 1010.1 hPa | 0 mm | - | 628 W/m² | - |
| 1777927806 | 26.67° C | 10% | 1010.1 hPa | 0 mm | - | 504 W/m² | - |
| 1777927504 | 26.11° C | 10% | 1010.1 hPa | 0 mm | - | 689 W/m² | - |
| 1777927203 | 26.11° C | 10% | 1009.8 hPa | 0 mm | - | 601 W/m² | - |
| 1777926901 | 25.56° C | 10% | 1010.1 hPa | 0 mm | - | 860 W/m² | - |
| 1777926596 | 25.56° C | 10% | 1010.3 hPa | 0 mm | - | 810 W/m² | - |
| 1777926293 | 26.67° C | 10% | 1010.2 hPa | 0 mm | - | 723 W/m² | - |
| 1777925990 | 27.22° C | 10% | 1010.1 hPa | 0 mm | - | 585 W/m² | - |
| 1777925687 | 26.67° C | 10% | 1010.2 hPa | 0 mm | - | 561 W/m² | - |
| 1777925384 | 26.67° C | 10% | 1010.1 hPa | 0 mm | - | 772 W/m² | - |
| 1777925081 | 26.67° C | 10% | 1009.9 hPa | 0 mm | - | 769 W/m² | - |
| 1777924778 | 26.11° C | 10% | 1010.2 hPa | 0 mm | - | 422 W/m² | - |
| 1777924474 | 26.67° C | 10% | 1009.9 hPa | 0 mm | - | 431 W/m² | - |
* Rain latest hour (hover to see other rain measurements)
** Current wind speed in m/s (hover to see current wind gust speed)